Weather History for KDYT - October, 2011

Change the Weather History Date:

Friday, October 7, 2011

  Actual Average Record
Temperature  
Mean Temperature 66 °F -  
Max Temperature 82 °F 56 °F 84 °F (1980)
Min Temperature 51 °F 37 °F 24 °F (1952)
Cooling Degree Days 2    
Growing Degree Days 16 (Base 50)    
Moisture  
Dew Point 52 °F    
Average Humidity 71    
Maximum Humidity 94    
Minimum Humidity 42    
Precipitation  
Precipitation 0.00 in - - ()
Sea Level Pressure  
Sea Level Pressure 29.94 in    
Wind  
Wind Speed 11 mph (ENE)    
Max Wind Speed 29 mph    
Max Gust Speed 39 mph    
Visibility 10 miles    
Events      
Averages and records for this station are not official NWS values.
T = Trace of Precipitation, MM = Missing Value Source: NWS Daily Summary

Daily Weather History Graph

Daily Weather History Graph

Search for Another Location

Airport or City:

Trip Planner

Search our weather history database for the weather conditions in past years. The results will help you decide how hot, cold, wet, or windy it might be!

Date:

Astronomy

Oct. 07, 2011 Rise Set
Actual Time 7:14 AM CDT 6:36 PM CDT
Civil Twilight 6:44 AM CDT 7:06 PM CDT
Nautical Twilight 6:09 AM CDT 7:41 PM CDT
Astronomical Twilight 5:33 AM CDT 8:17 PM CDT
Moon 4:31 PM CDT (10/7) 2:49 AM CDT (10/7)
Length of Visible Light 12h 22m
Length of Day
11h 22m
Waxing Gibbous, 83% of the Moon is Illuminated
Oct 7
Waxing Gibbous
Oct 11
Full
Oct 19
Last Quarter
Oct 26
New
Nov 2
First Quarter

Hourly Weather History & Observations

Time (CDT) Temp. Heat Index Dew Point Humidity Pressure Visibility Wind Dir Wind Speed Gust Speed Precip Events Conditions
12:13 AM 51.8 °F - 48.2 °F 88% 30.06 in 10.0 mi NE 6.9 mph - N/A   Clear
12:34 AM 51.8 °F - 48.2 °F 88% 30.06 in 10.0 mi ENE 5.8 mph - N/A   Clear
12:54 AM 51.8 °F - 48.2 °F 88% 30.06 in 10.0 mi NE 5.8 mph - N/A   Clear
1:13 AM 51.8 °F - 50.0 °F 94% 30.06 in 10.0 mi ENE 6.9 mph - N/A   Clear
1:34 AM 51.8 °F - 48.2 °F 88% 30.05 in 10.0 mi ENE 5.8 mph - N/A   Clear
1:53 AM 53.6 °F - 50.0 °F 88% 30.05 in 10.0 mi ENE 4.6 mph - N/A   Clear
2:13 AM 51.8 °F - 48.2 °F 88% 30.05 in 10.0 mi ENE 4.6 mph - N/A   Clear
2:34 AM 51.8 °F - 48.2 °F 88% 30.05 in 10.0 mi NE 5.8 mph - N/A   Clear
2:54 AM 51.8 °F - 48.2 °F 88% 30.04 in 10.0 mi NE 8.1 mph - N/A   Clear
3:13 AM 51.8 °F - 48.2 °F 88% 30.04 in 10.0 mi NE 11.5 mph - N/A   Clear
3:34 AM 51.8 °F - 48.2 °F 88% 30.04 in 10.0 mi NE 11.5 mph - N/A   Clear
3:53 AM 51.8 °F - 48.2 °F 88% 30.04 in 10.0 mi NE 9.2 mph - N/A   Clear
4:13 AM 53.6 °F - 48.2 °F 82% 30.04 in 10.0 mi NE 10.4 mph - N/A   Clear
4:34 AM 53.6 °F - 50.0 °F 88% 30.04 in 10.0 mi NE 6.9 mph - N/A   Clear
4:54 AM 51.8 °F - 48.2 °F 88% 30.04 in 10.0 mi NE 8.1 mph - N/A   Clear
5:13 AM 51.8 °F - 48.2 °F 88% 30.03 in 10.0 mi NE 8.1 mph - N/A   Clear
5:34 AM 51.8 °F - 48.2 °F 88% 30.03 in 10.0 mi NE 5.8 mph - N/A   Clear
5:53 AM 51.8 °F - 48.2 °F 88% 30.02 in 10.0 mi NE 4.6 mph - N/A   Clear
6:13 AM 51.8 °F - 48.2 °F 88% 30.02 in 10.0 mi Calm Calm - N/A   Clear
6:34 AM 51.8 °F - 48.2 °F 88% 30.02 in 10.0 mi NNE 8.1 mph - N/A   Clear
6:53 AM 51.8 °F - 48.2 °F 88% 30.01 in 10.0 mi NE 8.1 mph - N/A   Clear
7:14 AM 51.8 °F - 48.2 °F 88% 30.01 in 10.0 mi NE 9.2 mph - N/A   Clear
7:33 AM 51.8 °F - 48.2 °F 88% 30.01 in 10.0 mi NE 9.2 mph - N/A   Clear
7:53 AM 51.8 °F - 48.2 °F 88% 30.00 in 10.0 mi NE 10.4 mph - N/A   Clear
8:14 AM 51.8 °F - 48.2 °F 88% 30.00 in 10.0 mi NNE 12.7 mph - N/A   Clear
8:33 AM 51.8 °F - 50.0 °F 94% 29.99 in 10.0 mi NNE 10.4 mph - N/A   Clear
8:53 AM 53.6 °F - 50.0 °F 88% 29.99 in 10.0 mi NNE 9.2 mph - N/A   Clear
9:14 AM 53.6 °F - 50.0 °F 88% 29.99 in 10.0 mi NNE 9.2 mph - N/A   Clear
9:33 AM 53.6 °F - 50.0 °F 88% 29.98 in 10.0 mi NNE 10.4 mph - N/A   Clear
9:53 AM 53.6 °F - 50.0 °F 88% 29.98 in 10.0 mi NNE 9.2 mph - N/A   Clear
10:13 AM 53.6 °F - 51.8 °F 94% 29.97 in 10.0 mi NE 11.5 mph - N/A   Clear
10:34 AM 53.6 °F - 50.0 °F 88% 29.96 in 10.0 mi NE 11.5 mph - N/A   Clear
10:54 AM 55.4 °F - 51.8 °F 88% 29.95 in 10.0 mi NNE 10.4 mph - N/A   Clear
11:13 AM 55.4 °F - 51.8 °F 88% 29.95 in 10.0 mi NNE 10.4 mph - N/A   Clear
11:34 AM 55.4 °F - 51.8 °F 88% 29.94 in 10.0 mi NNE 10.4 mph - N/A   Clear
11:53 AM 53.6 °F - 50.0 °F 88% 29.94 in 10.0 mi NNE 11.5 mph - N/A   Scattered Clouds
12:34 PM 57.2 °F - 51.8 °F 82% 29.92 in 10.0 mi NNE 9.2 mph - N/A   Mostly Cloudy
12:53 PM 64.4 °F - 53.6 °F 68% 29.90 in 10.0 mi NNE 3.5 mph - N/A   Scattered Clouds
1:13 PM 77.0 °F - 53.6 °F 44% 29.88 in 10.0 mi South 21.9 mph 27.6 mph N/A   Clear
1:34 PM 78.8 °F - 53.6 °F 42% 29.86 in 10.0 mi South 21.9 mph 29.9 mph N/A   Clear
2:13 PM 80.6 °F 80.5 °F 55.4 °F 42% 29.84 in 10.0 mi South 19.6 mph 39.1 mph N/A   Clear
2:34 PM 80.6 °F 80.5 °F 55.4 °F 42% 29.84 in 10.0 mi South 16.1 mph - N/A   Clear
3:14 PM 80.6 °F 80.5 °F 55.4 °F 42% 29.82 in 10.0 mi South 20.7 mph 33.4 mph N/A   Clear
3:33 PM 80.6 °F 80.5 °F 55.4 °F 42% 29.82 in 10.0 mi South 25.3 mph 38.0 mph N/A   Scattered Clouds
4:14 PM 82.4 °F 82.0 °F 57.2 °F 42% 29.81 in 10.0 mi South 26.5 mph 33.4 mph N/A   Mostly Cloudy
4:33 PM 80.6 °F 80.8 °F 57.2 °F 45% 29.81 in 10.0 mi South 27.6 mph 35.7 mph N/A   Overcast
4:54 PM 80.6 °F 80.8 °F 57.2 °F 45% 29.81 in 10.0 mi South 20.7 mph 29.9 mph N/A   Overcast
5:13 PM 80.6 °F 80.8 °F 57.2 °F 45% 29.80 in 10.0 mi South 18.4 mph 27.6 mph N/A   Overcast
5:33 PM 80.6 °F 80.5 °F 55.4 °F 42% 29.80 in 10.0 mi South 24.2 mph 29.9 mph N/A   Overcast
5:54 PM 80.6 °F 80.8 °F 57.2 °F 45% 29.79 in 10.0 mi South 21.9 mph 27.6 mph N/A   Overcast
6:13 PM 80.6 °F 80.5 °F 55.4 °F 42% 29.79 in 10.0 mi South 20.7 mph 27.6 mph N/A   Overcast
6:34 PM 80.6 °F 80.5 °F 55.4 °F 42% 29.79 in 10.0 mi South 20.7 mph 34.5 mph N/A   Overcast
6:53 PM 80.6 °F 80.5 °F 55.4 °F 42% 29.79 in 10.0 mi South 21.9 mph 29.9 mph N/A   Overcast
7:14 PM 78.8 °F - 55.4 °F 44% 29.79 in 10.0 mi South 19.6 mph 31.1 mph N/A   Overcast
7:33 PM 80.6 °F 80.5 °F 55.4 °F 42% 29.79 in 10.0 mi South 27.6 mph 36.8 mph N/A   Overcast
7:54 PM 80.6 °F 80.5 °F 55.4 °F 42% 29.79 in 10.0 mi South 23.0 mph 35.7 mph N/A   Overcast
8:13 PM 78.8 °F - 55.4 °F 44% 29.79 in 10.0 mi South 24.2 mph 31.1 mph N/A   Overcast
8:33 PM 78.8 °F - 55.4 °F 44% 29.79 in 10.0 mi South 28.8 mph 33.4 mph N/A   Overcast
9:13 PM 78.8 °F - 55.4 °F 44% 29.79 in 10.0 mi South 21.9 mph 27.6 mph N/A   Overcast
9:34 PM 78.8 °F - 55.4 °F 44% 29.79 in 10.0 mi South 21.9 mph 32.2 mph N/A   Overcast
9:53 PM 78.8 °F - 55.4 °F 44% 29.80 in 10.0 mi South 26.5 mph 34.5 mph N/A   Overcast
10:13 PM 78.8 °F - 55.4 °F 44% 29.80 in 10.0 mi South 25.3 mph 33.4 mph N/A   Overcast
10:34 PM 78.8 °F - 53.6 °F 42% 29.80 in 10.0 mi South 29.9 mph 38.0 mph N/A   Overcast
10:53 PM 77.0 °F - 53.6 °F 44% 29.81 in 10.0 mi South 20.7 mph 39.1 mph N/A   Overcast
11:13 PM 77.0 °F - 53.6 °F 44% 29.81 in 10.0 mi SSW 28.8 mph 36.8 mph N/A   Mostly Cloudy
11:34 PM 77.0 °F - 53.6 °F 44% 29.81 in 10.0 mi SSW 32.2 mph 38.0 mph N/A   Scattered Clouds
11:53 PM 77.0 °F - 53.6 °F 44% 29.81 in 10.0 mi South 28.8 mph 36.8 mph N/A   Clear